Location: *
(48.8780°N, 19.2358°E)
Time: 21:00:37
(UTC+00:00)

STARLINK-57 - Pass Details

Date: 18 October 2019
Orbit: 548 x 551 km, 53.0° (Epoch: 14 November)

Event Time Altitude Azimuth Distance (km) Brightness Sun altitude
Rises 17:43:50 0° 274° (W) 2,716 8.8 -19.7°
Reaches altitude 10° 17:46:08 10° 280° (W) 1,824 7.5 -20.1°
Maximum altitude 17:50:09 47° 355° (N) 735 4.3 -20.7°
Enters shadow 17:51:00 40° 32° (NNE) 816 4.2 -20.9°
